Time,TemperatureF,DewpointF,PressureIn,WindDirection,WindDirectionDegrees,WindSpeedMPH,WindSpeedGustMPH,Humidity,HourlyPrecipIn,Conditions,Clouds,dailyrainin,SoftwareType,DateUTC
2013-09-25 00:06:00,68.1,62.0,29.84,NNW,331,0.0,0.0,81,0.00,,,0.00,weatherlink.com 1.10,2013-09-25 05:06:00,
2013-09-25 00:21:00,67.7,62.0,29.84,NNW,331,0.0,0.0,83,0.00,,,0.00,weatherlink.com 1.10,2013-09-25 05:21:00,
2013-09-25 00:36:00,67.2,62.0,29.83,NNW,331,0.0,0.0,84,0.00,,,0.00,weatherlink.com 1.10,2013-09-25 05:36:00,
2013-09-25 00:51:00,67.0,62.0,29.83,NNW,331,0.0,0.0,84,0.00,,,0.00,weatherlink.com 1.10,2013-09-25 05:51:00,
2013-09-25 01:06:00,66.8,62.0,29.83,NNW,331,0.0,0.0,85,0.00,,,0.00,weatherlink.com 1.10,2013-09-25 06:06:00,
2013-09-25 01:21:00,66.4,62.0,29.83,NNW,331,0.0,0.0,85,0.00,,,0.00,weatherlink.com 1.10,2013-09-25 06:21:00,
2013-09-25 01:36:00,66.3,62.0,29.83,NNW,331,0.0,0.0,86,0.00,,,0.00,weatherlink.com 1.10,2013-09-25 06:36:00,
2013-09-25 01:51:00,66.2,62.0,29.83,NNW,331,0.0,0.0,85,0.00,,,0.00,weatherlink.com 1.10,2013-09-25 06:51:00,
2013-09-25 02:06:00,66.2,61.0,29.83,NNW,331,0.0,0.0,84,0.00,,,0.00,weatherlink.com 1.10,2013-09-25 07:06:00,
2013-09-25 02:21:00,66.0,61.0,29.83,NNW,331,0.0,0.0,84,0.00,,,0.00,weatherlink.com 1.10,2013-09-25 07:21:00,
2013-09-25 02:36:00,65.6,61.0,29.83,NNW,331,0.0,0.0,85,0.00,,,0.00,weatherlink.com 1.10,2013-09-25 07:36:00,
2013-09-25 02:51:00,65.8,62.0,29.83,NNW,331,0.0,0.0,86,0.00,,,0.00,weatherlink.com 1.10,2013-09-25 07:51:00,
2013-09-25 03:06:00,65.6,61.0,29.84,NNW,331,0.0,0.0,86,0.00,,,0.00,weatherlink.com 1.10,2013-09-25 08:06:00,
2013-09-25 03:21:00,65.6,62.0,29.84,NNW,331,0.0,0.0,87,0.00,,,0.00,weatherlink.com 1.10,2013-09-25 08:21:00,
2013-09-25 03:36:00,65.6,61.0,29.84,NNW,332,0.0,0.0,86,0.00,,,0.00,weatherlink.com 1.10,2013-09-25 08:36:00,
2013-09-25 03:51:00,65.4,61.0,29.83,NNW,332,0.0,0.0,85,0.00,,,0.00,weatherlink.com 1.10,2013-09-25 08:51:00,
2013-09-25 04:06:00,65.5,61.0,29.83,NNW,332,0.0,0.0,84,0.00,,,0.00,weatherlink.com 1.10,2013-09-25 09:06:00,
2013-09-25 04:21:00,65.8,61.0,29.83,NNW,332,0.0,0.0,84,0.00,,,0.00,weatherlink.com 1.10,2013-09-25 09:21:00,
2013-09-25 04:36:00,66.1,62.0,29.83,NNW,332,0.0,0.0,85,0.00,,,0.00,weatherlink.com 1.10,2013-09-25 09:36:00,
2013-09-25 04:51:00,65.9,61.0,29.84,NNW,332,0.0,0.0,83,0.00,,,0.00,weatherlink.com 1.10,2013-09-25 09:51:00,
2013-09-25 05:06:00,65.8,61.0,29.84,NNW,332,0.0,0.0,84,0.00,,,0.00,weatherlink.com 1.10,2013-09-25 10:06:00,
2013-09-25 05:21:00,65.5,60.0,29.84,NNW,332,0.0,0.0,83,0.00,,,0.00,weatherlink.com 1.10,2013-09-25 10:21:00,
2013-09-25 05:36:00,65.3,60.0,29.84,NNW,332,0.0,0.0,83,0.00,,,0.00,weatherlink.com 1.10,2013-09-25 10:36:00,
2013-09-25 05:51:00,65.3,60.0,29.84,NNW,332,0.0,2.0,83,0.00,,,0.00,weatherlink.com 1.10,2013-09-25 10:51:00,
2013-09-25 06:06:00,65.3,60.0,29.84,NNW,332,0.0,1.0,83,0.00,,,0.00,weatherlink.com 1.10,2013-09-25 11:06:00,
2013-09-25 06:21:00,65.0,60.0,29.85,NNW,332,0.0,0.0,83,0.00,,,0.00,weatherlink.com 1.10,2013-09-25 11:21:00,
2013-09-25 06:36:00,64.5,58.0,29.85,NNW,332,0.0,0.0,80,0.00,,,0.00,weatherlink.com 1.10,2013-09-25 11:36:00,
2013-09-25 06:51:00,64.0,57.0,29.85,NNW,332,0.0,0.0,79,0.00,,,0.00,weatherlink.com 1.10,2013-09-25 11:51:00,
2013-09-25 07:06:00,63.3,57.0,29.86,NNW,332,0.0,0.0,81,0.00,,,0.00,weatherlink.com 1.10,2013-09-25 12:06:00,
2013-09-25 07:21:00,62.6,57.0,29.86,NNW,332,0.0,0.0,83,0.00,,,0.00,weatherlink.com 1.10,2013-09-25 12:21:00,
2013-09-25 07:36:00,62.1,57.0,29.86,NNW,332,0.0,0.0,84,0.00,,,0.00,weatherlink.com 1.10,2013-09-25 12:36:00,
2013-09-25 07:51:00,61.9,57.0,29.86,NNW,332,0.0,0.0,85,0.00,,,0.00,weatherlink.com 1.10,2013-09-25 12:51:00,
2013-09-25 08:06:00,62.4,58.0,29.87,NNW,332,0.0,0.0,86,0.00,,,0.00,weatherlink.com 1.10,2013-09-25 13:06:00,
2013-09-25 08:21:00,62.7,59.0,29.87,NNW,332,0.0,0.0,86,0.00,,,0.00,weatherlink.com 1.10,2013-09-25 13:21:00,
2013-09-25 08:36:00,63.3,59.0,29.87,NNW,332,0.0,0.0,86,0.00,,,0.00,weatherlink.com 1.10,2013-09-25 13:36:00,
2013-09-25 08:51:00,64.5,60.0,29.87,NNW,332,0.0,0.0,86,0.00,,,0.00,weatherlink.com 1.10,2013-09-25 13:51:00,
2013-09-25 09:07:00,66.9,62.0,29.87,NNW,332,0.0,0.0,84,0.00,,,0.00,weatherlink.com 1.10,2013-09-25 14:07:00,
2013-09-25 09:22:00,70.7,64.0,29.88,NNW,332,0.0,0.0,80,0.00,,,0.00,weatherlink.com 1.10,2013-09-25 14:22:00,
2013-09-25 09:37:00,75.8,64.0,29.88,NNW,332,0.0,1.0,67,0.00,,,0.00,weatherlink.com 1.10,2013-09-25 14:37:00,
2013-09-25 09:52:00,78.7,64.0,29.88,NNW,332,0.0,0.0,60,0.00,,,0.00,weatherlink.com 1.10,2013-09-25 14:52:00,
2013-09-25 10:07:00,81.6,63.0,29.89,NNW,332,0.0,1.0,54,0.00,,,0.00,weatherlink.com 1.10,2013-09-25 15:07:00,
2013-09-25 10:22:00,83.2,60.0,29.89,ESE,115,0.0,2.0,46,0.00,,,0.00,weatherlink.com 1.10,2013-09-25 15:22:00,
2013-09-25 10:37:00,84.7,61.0,29.89,SE,128,0.0,4.0,45,0.00,,,0.00,weatherlink.com 1.10,2013-09-25 15:37:00,
2013-09-25 10:52:00,85.3,62.0,29.89,East,101,1.0,2.0,45,0.00,,,0.00,weatherlink.com 1.10,2013-09-25 15:52:00,
2013-09-25 11:07:00,86.4,59.0,29.89,East,101,0.0,1.0,39,0.00,,,0.00,weatherlink.com 1.10,2013-09-25 16:07:00,
2013-09-25 11:22:00,86.9,58.0,29.88,East,101,0.0,2.0,37,0.00,,,0.00,weatherlink.com 1.10,2013-09-25 16:22:00,
2013-09-25 11:37:00,89.2,54.0,29.88,ESE,119,0.0,7.0,30,0.00,,,0.00,weatherlink.com 1.10,2013-09-25 16:37:00,
2013-09-25 11:52:00,88.5,56.0,29.88,WNW,292,0.0,3.0,33,0.00,,,0.00,weatherlink.com 1.10,2013-09-25 16:52:00,
2013-09-25 12:07:00,88.9,55.0,29.87,WNW,300,0.0,3.0,32,0.00,,,0.00,weatherlink.com 1.10,2013-09-25 17:07:00,
2013-09-25 12:22:00,90.4,54.0,29.86,East,91,1.0,2.0,29,0.00,,,0.00,weatherlink.com 1.10,2013-09-25 17:22:00,
2013-09-25 12:37:00,90.4,52.0,29.86,NNW,330,0.0,4.0,27,0.00,,,0.00,weatherlink.com 1.10,2013-09-25 17:37:00,
2013-09-25 12:52:00,91.0,51.0,29.85,NNW,348,2.0,2.0,25,0.00,,,0.00,weatherlink.com 1.10,2013-09-25 17:52:00,
2013-09-25 13:07:00,91.8,51.0,29.85,NNW,338,0.0,4.0,25,0.00,,,0.00,weatherlink.com 1.10,2013-09-25 18:07:00,
2013-09-25 13:22:00,91.8,50.0,29.84,SSW,213,4.0,6.0,24,0.00,,,0.00,weatherlink.com 1.10,2013-09-25 18:22:00,
2013-09-25 13:37:00,91.2,50.0,29.84,NNW,329,0.0,5.0,24,0.00,,,0.00,weatherlink.com 1.10,2013-09-25 18:37:00,
2013-09-25 13:52:00,93.6,52.0,29.83,SSW,194,4.0,5.0,24,0.00,,,0.00,weatherlink.com 1.10,2013-09-25 18:52:00,
2013-09-25 14:07:00,93.9,52.0,29.83,WSW,240,1.0,4.0,24,0.00,,,0.00,weatherlink.com 1.10,2013-09-25 19:07:00,
2013-09-25 14:22:00,93.2,49.0,29.82,SW,222,0.0,5.0,22,0.00,,,0.00,weatherlink.com 1.10,2013-09-25 19:22:00,
2013-09-25 14:37:00,92.2,48.0,29.82,NNW,331,1.0,4.0,22,0.00,,,0.00,weatherlink.com 1.10,2013-09-25 19:37:00,
2013-09-25 14:52:00,92.8,49.0,29.81,NW,325,1.0,3.0,22,0.00,,,0.00,weatherlink.com 1.10,2013-09-25 19:52:00,
2013-09-25 15:07:00,93.4,52.0,29.80,SW,222,2.0,7.0,24,0.00,,,0.00,weatherlink.com 1.10,2013-09-25 20:07:00,
2013-09-25 15:22:00,92.8,50.0,29.80,NNW,339,2.0,5.0,23,0.00,,,0.00,weatherlink.com 1.10,2013-09-25 20:22:00,
2013-09-25 15:37:00,94.0,47.0,29.80,West,279,0.0,3.0,20,0.00,,,0.00,weatherlink.com 1.10,2013-09-25 20:37:00,
2013-09-25 15:53:00,92.8,53.0,29.80,NNW,330,0.0,5.0,26,0.00,,,0.00,weatherlink.com 1.10,2013-09-25 20:53:00,
2013-09-25 16:08:00,92.8,50.0,29.79,NNW,346,0.0,4.0,23,0.00,,,0.00,weatherlink.com 1.10,2013-09-25 21:08:00,
2013-09-25 16:23:00,92.9,52.0,29.79,NW,306,0.0,3.0,25,0.00,,,0.00,weatherlink.com 1.10,2013-09-25 21:23:00,
2013-09-25 16:38:00,92.5,50.0,29.79,NNW,340,0.0,6.0,23,0.00,,,0.00,weatherlink.com 1.10,2013-09-25 21:38:00,
2013-09-25 16:53:00,91.7,52.0,29.79,NNW,344,0.0,3.0,26,0.00,,,0.00,weatherlink.com 1.10,2013-09-25 21:53:00,
2013-09-25 17:08:00,90.9,48.0,29.79,WSW,241,1.0,2.0,23,0.00,,,0.00,weatherlink.com 1.10,2013-09-25 22:08:00,
2013-09-25 17:23:00,89.7,48.0,29.79,NW,323,0.0,4.0,24,0.00,,,0.00,weatherlink.com 1.10,2013-09-25 22:23:00,
2013-09-25 17:38:00,89.3,52.0,29.79,NW,323,0.0,2.0,28,0.00,,,0.00,weatherlink.com 1.10,2013-09-25 22:38:00,
2013-09-25 17:53:00,88.4,52.0,29.79,NW,323,0.0,2.0,29,0.00,,,0.00,weatherlink.com 1.10,2013-09-25 22:53:00,
2013-09-25 18:08:00,87.4,50.0,29.78,NW,323,0.0,1.0,28,0.00,,,0.00,weatherlink.com 1.10,2013-09-25 23:08:00,
2013-09-25 18:23:00,86.4,51.0,29.79,NW,323,0.0,0.0,29,0.00,,,0.00,weatherlink.com 1.10,2013-09-25 23:23:00,
2013-09-25 18:38:00,85.2,53.0,29.78,NW,323,0.0,0.0,33,0.00,,,0.00,weatherlink.com 1.10,2013-09-25 23:38:00,
2013-09-25 19:08:00,82.6,54.0,29.79,NW,323,0.0,0.0,38,0.00,,,0.00,weatherlink.com 1.10,2013-09-26 00:08:00,
2013-09-25 19:23:00,81.2,55.0,29.79,NW,323,0.0,0.0,40,0.00,,,0.00,weatherlink.com 1.10,2013-09-26 00:23:00,
2013-09-25 19:38:00,79.7,55.0,29.79,NW,323,0.0,0.0,43,0.00,,,0.00,weatherlink.com 1.10,2013-09-26 00:38:00,
2013-09-25 19:53:00,78.0,58.0,29.80,NW,323,0.0,0.0,51,0.00,,,0.00,weatherlink.com 1.10,2013-09-26 00:53:00,
2013-09-25 20:08:00,76.2,57.0,29.80,NW,323,0.0,0.0,52,0.00,,,0.00,weatherlink.com 1.10,2013-09-26 01:08:00,
2013-09-25 20:23:00,74.8,56.0,29.80,NW,323,0.0,0.0,53,0.00,,,0.00,weatherlink.com 1.10,2013-09-26 01:23:00,
2013-09-25 20:38:00,73.7,57.0,29.80,NW,323,0.0,0.0,56,0.00,,,0.00,weatherlink.com 1.10,2013-09-26 01:38:00,
2013-09-25 20:53:00,72.8,57.0,29.81,NW,323,0.0,0.0,58,0.00,,,0.00,weatherlink.com 1.10,2013-09-26 01:53:00,
2013-09-25 21:08:00,71.7,57.0,29.82,NW,323,0.0,0.0,60,0.00,,,0.00,weatherlink.com 1.10,2013-09-26 02:08:00,
2013-09-25 21:23:00,71.0,59.0,29.82,NW,323,0.0,0.0,67,0.00,,,0.00,weatherlink.com 1.10,2013-09-26 02:23:00,
2013-09-25 21:38:00,69.9,59.0,29.82,NW,323,0.0,0.0,69,0.00,,,0.00,weatherlink.com 1.10,2013-09-26 02:38:00,
2013-09-25 21:53:00,69.2,58.0,29.83,NW,323,0.0,0.0,68,0.00,,,0.00,weatherlink.com 1.10,2013-09-26 02:53:00,
2013-09-25 22:08:00,68.7,58.0,29.83,NW,323,0.0,0.0,69,0.00,,,0.00,weatherlink.com 1.10,2013-09-26 03:08:00,
2013-09-25 22:23:00,68.3,57.0,29.83,NW,323,0.0,0.0,67,0.00,,,0.00,weatherlink.com 1.10,2013-09-26 03:23:00,
2013-09-25 22:38:00,68.1,57.0,29.84,NW,323,0.0,1.0,67,0.00,,,0.00,weatherlink.com 1.10,2013-09-26 03:38:00,
2013-09-25 22:53:00,67.8,59.0,29.83,NW,323,0.0,0.0,73,0.00,,,0.00,weatherlink.com 1.10,2013-09-26 03:53:00,
2013-09-25 23:08:00,67.2,58.0,29.83,NW,323,0.0,0.0,72,0.00,,,0.00,weatherlink.com 1.10,2013-09-26 04:08:00,
2013-09-25 23:23:00,66.6,58.0,29.84,NW,323,0.0,0.0,75,0.00,,,0.00,weatherlink.com 1.10,2013-09-26 04:23:00,
2013-09-25 23:38:00,65.5,58.0,29.84,NW,323,0.0,0.0,77,0.00,,,0.00,weatherlink.com 1.10,2013-09-26 04:38:00,
2013-09-25 23:53:00,65.2,58.0,29.83,NW,323,0.0,0.0,78,0.00,,,0.00,weatherlink.com 1.10,2013-09-26 04:53:00,